This is the latest recevied weather packets stored in our database for station/object G0AMO. If no packets are shown the sender has not sent any weather packets the latest 10 day(s).
| Time | Temp. | Humidity | Pressure | Rain* | Wind** | Luminosity | Snow |
|---|---|---|---|---|---|---|---|
| 1778057704 | 10° C | 71% | 1015.2 hPa | 0 mm | - | 594 W/m² | - |
| 1778056805 | 10° C | 73% | 1014.6 hPa | 0 mm | - | 524 W/m² | - |
| 1778056504 | 10° C | 72% | 1014.6 hPa | 0 mm | - | 501 W/m² | - |
| 1778054104 | 8.89° C | 78% | 1014.2 hPa | 0 mm | - | 321 W/m² | - |
| 1778053506 | 8.33° C | 78% | 1014.6 hPa | 0 mm | - | 278 W/m² | - |
| 1778052004 | 7.78° C | 78% | 1013.9 hPa | 0 mm | - | 177 W/m² | - |
| 1778051104 | 7.78° C | 80% | 1013.9 hPa | 0 mm | - | 122 W/m² | - |
| 1778048104 | 7.22° C | 82% | 1014.6 hPa | 0 mm | - | 33 W/m² | - |
| 1778047804 | 7.22° C | 82% | 1014.6 hPa | 0 mm | - | 22 W/m² | - |
| 1778044804 | 7.78° C | 84% | 1014.2 hPa | 0 mm | - | 0 W/m² | - |
| 1778044504 | 7.78° C | 83% | 1014.2 hPa | 0 mm | - | 0 W/m² | - |
| 1778040605 | 8.33° C | 85% | 1013.5 hPa | 0 mm | - | 0 W/m² | - |
| 1778039405 | 8.33° C | 85% | 1013.1 hPa | 0 mm | - | 0 W/m² | - |
| 1778038805 | 8.33° C | 85% | 1013.9 hPa | 0 mm | - | 0 W/m² | - |
| 1778038504 | 8.33° C | 85% | 1014.2 hPa | 0 mm | - | 0 W/m² | - |
| 1778037306 | 8.33° C | 84% | 1013.2 hPa | 0 mm | - | 0 W/m² | - |
| 1778033104 | 8.89° C | 86% | 1014.2 hPa | 0 mm | - | 0 W/m² | - |
| 1778029805 | 9.44° C | 82% | 1012.9 hPa | 0 mm | - | 0 W/m² | - |
| 1778028304 | 9.44° C | 80% | 1014.6 hPa | 0 mm | - | 0 W/m² | - |
| 1778027704 | 9.44° C | 79% | 1014.2 hPa | 0 mm | - | 0 W/m² | - |
| 1778025004 | 10° C | 80% | 1014.2 hPa | 0 mm | - | 0 W/m² | - |
| 1778023204 | 10.56° C | 80% | 1013.9 hPa | 0 mm | - | 0 W/m² | - |
| 1778022305 | 10.56° C | 80% | 1013.9 hPa | 0 mm | - | 0 W/m² | - |
| 1778019604 | 11.67° C | 76% | 1013.9 hPa | 0 mm | - | 0 W/m² | - |
| 1778018704 | 11.67° C | 75% | 1013.9 hPa | 0 mm | - | 0 W/m² | - |
* Rain latest hour (hover to see other rain measurements)
** Current wind speed in m/s (hover to see current wind gust speed)